M I D A S
Marine Information and Data Acquisition System
Tripno 1984 of the Zeeleeuw from 2010-11-08 07:17:38 to 2010-11-08 14:02:37
Back to CruiseResearch ActivitiesStationsMapUnderway DataData graphs

EquipmentUnitsComments
TimeDGPSUTC
LatitudeDGPSDM.mWGS84
LongitudeDGPSDM.mWGS84
SpeedMeteo Stationm/sRelative wind speed
DirectionMeteo StationdegRelative wind direction
TemperatureMeteo Stationdeg CelciusAir temperature
PressureMeteo StationPaAtmospheric pressure
HumidityMeteo Station%Relative humidity
Missing or incorrect values are displayed as -999
Metereological data collected by the RV Zeeleeuw from 2010-11-08 07:08:11 to 2010-11-08 14:30:11
                                                                                    Next 1000 lines
Time Latitude Longitude Speed Direction Temperature Pressure Humidity
2010-11-08 07:08:20 51°13.664 2°55.959 4.4 340 5.2 98240 40
2010-11-08 07:08:25 51°13.663 2°55.959 4.8 356 5.2 98240 40
2010-11-08 07:08:30 51°13.662 2°55.958 3.9 337 5.2 98240 43
2010-11-08 07:08:35 51°13.663 2°55.958 5.5 284 5.2 98240 43
2010-11-08 07:08:40 51°13.663 2°55.959 0.2 355 5.2 98240 43
2010-11-08 07:08:44 51°13.663 2°55.959 4.8 281 5.2 98240 43
2010-11-08 07:08:49 51°13.663 2°55.959 3.1 348 5.2 98240 41
2010-11-08 07:08:54 51°13.663 2°55.958 3.7 286 5.2 98240 41
2010-11-08 07:08:59 51°13.664 2°55.958 4.5 334 5.2 98240 42
2010-11-08 07:09:04 51°13.664 2°55.958 3.6 285 5.2 98240 42
2010-11-08 07:09:08 51°13.663 2°55.958 6.4 336 5.2 98240 42
2010-11-08 07:09:14 51°13.663 2°55.959 3.6 285 5.2 98240 42
2010-11-08 07:09:19 51°13.663 2°55.959 4.2 343 5.2 98240 41
2010-11-08 07:09:24 51°13.663 2°55.959 5.6 280 5.2 98240 41
2010-11-08 07:09:28 51°13.663 2°55.959 4.8 343 5.2 98230 43
2010-11-08 07:09:33 51°13.664 2°55.959 2.4 282 5.2 98230 43
2010-11-08 07:09:38 51°13.664 2°55.959 4.6 349 5.2 98230 43
2010-11-08 07:09:43 51°13.664 2°55.959 6.2 284 5.2 98230 43
2010-11-08 07:09:48 51°13.664 2°55.959 6.7 347 5.2 98230 41
2010-11-08 07:09:52 51°13.664 2°55.959 5 347 5.2 98230 41
2010-11-08 07:09:57 51°13.664 2°55.959 6.4 344 5.2 98230 41
2010-11-08 07:10:03 51°13.664 2°55.959 3.9 353 5.2 98230 41
2010-11-08 07:10:08 51°13.664 2°55.959 5.3 355 5.2 98230 39
2010-11-08 07:10:12 51°13.664 2°55.959 6.3 349 5.2 98230 39
2010-11-08 07:10:17 51°13.664 2°55.959 3.8 346 5.2 98230 43
2010-11-08 07:10:22 51°13.664 2°55.959 3.7 286 5.2 98230 43
2010-11-08 07:10:27 51°13.664 2°55.959 4.7 343 5.2 98230 43
2010-11-08 07:10:32 51°13.664 2°55.959 2.9 287 5.2 98230 43
2010-11-08 07:10:36 51°13.664 2°55.959 4.9 344 5.2 98230 43
2010-11-08 07:10:41 51°13.664 2°55.959 3.3 280 5.2 98230 43
2010-11-08 07:10:48 51°13.664 2°55.959 4 342 5.2 98230 43
2010-11-08 07:10:53 51°13.664 2°55.959 6.6 285 5.2 98230 43
2010-11-08 07:10:57 51°13.664 2°55.959 2.2 347 5.2 98240 43
2010-11-08 07:11:02 51°13.664 2°55.959 4.3 346 5.2 98240 43
2010-11-08 07:11:08 51°13.664 2°55.959 5.6 350 5.2 98230 43
2010-11-08 07:11:13 51°13.664 2°55.959 5.1 347 5.2 98230 43
2010-11-08 07:11:17 51°13.664 2°55.959 3.4 354 5.2 98230 42
2010-11-08 07:11:22 51°13.663 2°55.959 2.5 356 5.2 98230 42
2010-11-08 07:11:28 51°13.664 2°55.959 0.2 352 5.2 98230 43
2010-11-08 07:11:33 51°13.664 2°55.959 0.1 283 5.2 98230 43
2010-11-08 07:11:37 51°13.664 2°55.959 -999 4 5.2 98230 40
2010-11-08 07:11:43 51°13.664 2°55.959 -999 350 5.2 98230 40
2010-11-08 07:11:47 51°13.664 2°55.958 -999 352 5.2 98230 41
2010-11-08 07:11:52 51°13.664 2°55.959 -999 348 5.2 98230 41
2010-11-08 07:11:57 51°13.664 2°55.959 -999 356 5.2 98230 41
2010-11-08 07:12:02 51°13.664 2°55.959 -999 283 5.2 98230 41
2010-11-08 07:12:07 51°13.664 2°55.958 0.1 343 5.2 98230 41
2010-11-08 07:12:12 51°13.664 2°55.959 7.3 280 5.2 98230 41
2010-11-08 07:12:17 51°13.664 2°55.959 5.3 350 5.2 98230 42
2010-11-08 07:12:22 51°13.664 2°55.959 6 352 5.2 98230 42
2010-11-08 07:12:27 51°13.664 2°55.959 2.7 353 5.2 98230 41
2010-11-08 07:12:32 51°13.664 2°55.959 6.4 353 5.2 98230 41
2010-11-08 07:12:37 51°13.665 2°55.958 3.8 352 5.2 98230 40
2010-11-08 07:12:41 51°13.664 2°55.958 3.8 347 5.2 98230 40
2010-11-08 07:12:48 51°13.665 2°55.958 4 334 5.2 98230 42
2010-11-08 07:12:53 51°13.665 2°55.958 5.1 279 5.2 98230 42
2010-11-08 07:12:58 51°13.664 2°55.958 4.6 332 5.2 98220 42
2010-11-08 07:13:02 51°13.664 2°55.958 3.1 285 5.2 98220 42
2010-11-08 07:13:08 51°13.664 2°55.959 4.8 341 5.2 98230 43
2010-11-08 07:13:13 51°13.665 2°55.958 4.3 280 5.2 98230 43
2010-11-08 07:13:18 51°13.664 2°55.958 5.3 348 5.2 98220 42
2010-11-08 07:13:22 51°13.664 2°55.958 4.8 280 5.2 98220 42
2010-11-08 07:13:28 51°13.665 2°55.958 5.1 351 5.2 98220 42
2010-11-08 07:13:33 51°13.665 2°55.959 3.8 346 5.2 98220 40
2010-11-08 07:13:38 51°13.665 2°55.959 3.7 344 5.2 98220 40
2010-11-08 07:13:42 51°13.664 2°55.958 3.9 279 5.2 98220 40
2010-11-08 07:13:48 51°13.664 2°55.959 2.9 340 5.2 98220 43
2010-11-08 07:13:53 51°13.664 2°55.959 2.8 287 5.2 98220 43
2010-11-08 07:13:58 51°13.664 2°55.959 4.6 344 5.2 98230 42
2010-11-08 07:14:02 51°13.664 2°55.959 4 279 5.2 98230 42
2010-11-08 07:14:08 51°13.664 2°55.959 5 341 5.3 98220 41
2010-11-08 07:14:13 51°13.664 2°55.959 5.3 285 5.3 98220 41
2010-11-08 07:14:18 51°13.664 2°55.959 5.1 354 5.3 98220 43
2010-11-08 07:14:22 51°13.664 2°55.959 2.8 345 5.3 98220 43
2010-11-08 07:14:27 51°13.664 2°55.958 5.3 338 5.2 98220 40
2010-11-08 07:14:33 51°13.664 2°55.959 5 282 5.2 98220 40
2010-11-08 07:14:38 51°13.664 2°55.959 5.3 328 5.3 98220 41
2010-11-08 07:14:42 51°13.664 2°55.959 8 285 5.3 98220 41
2010-11-08 07:14:48 51°13.664 2°55.959 8.2 344 5.2 98220 43
2010-11-08 07:14:53 51°13.664 2°55.959 5.4 354 5.2 98220 43
2010-11-08 07:14:58 51°13.664 2°55.959 4.8 352 5.3 98220 41
2010-11-08 07:15:02 51°13.664 2°55.959 7.2 351 5.3 98220 41
2010-11-08 07:15:08 51°13.664 2°55.959 7 351 5.2 98220 42
2010-11-08 07:15:13 51°13.664 2°55.959 5.3 286 5.2 98220 42
2010-11-08 07:15:18 51°13.664 2°55.959 6 341 5.2 98220 42
2010-11-08 07:15:22 51°13.664 2°55.959 7.3 345 5.2 98220 42
2010-11-08 07:15:27 51°13.664 2°55.959 6.6 344 5.2 98220 39
2010-11-08 07:15:33 51°13.664 2°55.958 4 358 5.2 98220 39
2010-11-08 07:15:38 51°13.664 2°55.958 4.8 353 5.2 98220 42
2010-11-08 07:15:42 51°13.664 2°55.959 4 287 5.2 98220 42
2010-11-08 07:15:48 51°13.664 2°55.959 4.5 336 5.2 98210 43
2010-11-08 07:15:53 51°13.664 2°55.958 6.2 345 5.2 98210 43
2010-11-08 07:15:58 51°13.664 2°55.959 7.9 341 5.2 98220 40
2010-11-08 07:16:02 51°13.664 2°55.958 6.8 279 5.2 98220 40
2010-11-08 07:16:08 51°13.664 2°55.959 3.7 348 5.2 98220 42
2010-11-08 07:16:13 51°13.664 2°55.958 4.8 350 5.2 98220 42
2010-11-08 07:16:18 51°13.664 2°55.959 4.3 350 5.2 98220 42
2010-11-08 07:16:22 51°13.664 2°55.959 3.2 352 5.2 98220 42
2010-11-08 07:16:27 51°13.664 2°55.959 2.8 349 5.2 98210 40
2010-11-08 07:16:33 51°13.664 2°55.959 4.4 284 5.2 98210 40
2010-11-08 07:16:38 51°13.664 2°55.959 2.9 346 5.2 98220 40
2010-11-08 07:16:43 51°13.664 2°55.959 5.1 355 5.2 98220 40
2010-11-08 07:16:48 51°13.664 2°55.959 6.8 345 5.3 98220 43
2010-11-08 07:16:53 51°13.664 2°55.959 4.3 346 5.3 98220 43
2010-11-08 07:16:58 51°13.664 2°55.959 7.5 346 5.3 98220 43
2010-11-08 07:17:03 51°13.664 2°55.959 3.9 285 5.3 98220 43
2010-11-08 07:17:08 51°13.664 2°55.96 4.3 337 5.3 98210 40
2010-11-08 07:17:13 51°13.664 2°55.959 5.1 346 5.3 98210 40
2010-11-08 07:17:18 51°13.664 2°55.96 5.7 344 5.3 98220 41
2010-11-08 07:17:22 51°13.664 2°55.96 3.4 346 5.3 98220 41
2010-11-08 07:17:28 51°13.664 2°55.96 1.2 344 5.3 98210 40
2010-11-08 07:17:33 51°13.664 2°55.96 0.1 353 5.3 98210 40
2010-11-08 07:17:38 51°13.664 2°55.96 0.1 357 5.3 98210 40
2010-11-08 07:17:43 51°13.664 2°55.96 -999 357 5.3 98210 40
2010-11-08 07:17:48 51°13.664 2°55.96 -999 357 5.3 98210 41
2010-11-08 07:17:53 51°13.664 2°55.96 -999 283 5.3 98210 41
2010-11-08 07:17:58 51°13.664 2°55.96 -999 343 5.3 98210 42
2010-11-08 07:18:02 51°13.664 2°55.96 -999 283 5.3 98210 42
2010-11-08 07:18:08 51°13.664 2°55.96 -999 331 5.3 98220 40
2010-11-08 07:18:13 51°13.664 2°55.96 -999 283 5.3 98220 40
2010-11-08 07:18:18 51°13.663 2°55.961 -999 350 5.3 98210 41
2010-11-08 07:18:22 51°13.663 2°55.961 -999 283 5.3 98210 41
2010-11-08 07:18:28 51°13.663 2°55.96 -999 343 5.3 98210 41
2010-11-08 07:18:33 51°13.664 2°55.96 -999 283 5.3 98210 41
2010-11-08 07:18:38 51°13.663 2°55.96 -999 346 5.3 98210 41
2010-11-08 07:18:42 51°13.663 2°55.96 -999 283 5.3 98210 41
2010-11-08 07:18:48 51°13.663 2°55.96 -999 342 5.3 98210 41
2010-11-08 07:18:53 51°13.663 2°55.961 -999 283 5.3 98210 41
2010-11-08 07:18:58 51°13.663 2°55.961 -999 353 5.3 98210 41
2010-11-08 07:19:02 51°13.663 2°55.961 -999 283 5.3 98210 41
2010-11-08 07:19:07 51°13.664 2°55.96 -999 346 5.3 98210 41
2010-11-08 07:19:12 51°13.664 2°55.96 -999 284 5.3 98210 41
2010-11-08 07:19:17 51°13.663 2°55.961 -999 342 5.3 98210 41
2010-11-08 07:19:22 51°13.663 2°55.961 -999 283 5.3 98210 41
2010-11-08 07:19:27 51°13.663 2°55.961 -999 338 5.3 98210 42
2010-11-08 07:19:33 51°13.663 2°55.961 -999 358 5.3 98210 42
2010-11-08 07:19:38 51°13.663 2°55.961 -999 353 5.3 98200 41
2010-11-08 07:19:43 51°13.664 2°55.961 -999 283 5.3 98200 41
2010-11-08 07:19:48 51°13.664 2°55.961 -999 343 5.3 98200 41
2010-11-08 07:19:53 51°13.664 2°55.961 -999 349 5.3 98200 41
2010-11-08 07:19:58 51°13.664 2°55.961 -999 340 5.3 98200 41
2010-11-08 07:20:03 51°13.663 2°55.961 -999 283 5.3 98200 41
2010-11-08 07:20:07 51°13.663 2°55.961 -999 331 5.3 98210 41
2010-11-08 07:20:13 51°13.663 2°55.961 -999 283 5.3 98210 41
2010-11-08 07:20:19 51°13.663 2°55.961 -999 344 5.3 98200 41
2010-11-08 07:20:24 51°13.663 2°55.961 -999 351 5.3 98200 41
2010-11-08 07:20:29 51°13.663 2°55.961 -999 344 5.3 98200 41
2010-11-08 07:20:34 51°13.663 2°55.961 -999 283 5.3 98200 41
2010-11-08 07:20:39 51°13.663 2°55.961 5.8 337 5.3 98200 41
2010-11-08 07:20:43 51°13.663 2°55.961 7.3 285 5.3 98200 41
2010-11-08 07:20:48 51°13.663 2°55.961 5.7 342 5.3 98210 40
2010-11-08 07:20:53 51°13.663 2°55.961 4.7 349 5.3 98210 40
2010-11-08 07:20:58 51°13.663 2°55.961 5 339 5.3 98200 43
2010-11-08 07:21:03 51°13.663 2°55.961 4.9 350 5.3 98200 43
2010-11-08 07:21:07 51°13.663 2°55.961 5.8 352 5.3 98210 43
2010-11-08 07:21:13 51°13.663 2°55.961 4.3 280 5.3 98210 43
2010-11-08 07:21:18 51°13.663 2°55.961 5.2 338 5.3 98210 43
2010-11-08 07:21:23 51°13.663 2°55.961 3 285 5.3 98200 41
2010-11-08 07:21:27 51°13.663 2°55.961 4.9 337 5.3 98200 43
2010-11-08 07:21:33 51°13.663 2°55.961 7.1 282 5.3 98200 43
2010-11-08 07:21:38 51°13.662 2°55.961 6.9 343 5.3 98200 42
2010-11-08 07:21:43 51°13.662 2°55.961 6.6 344 5.3 98200 42
2010-11-08 07:21:47 51°13.662 2°55.961 8.4 341 5.3 98200 41
2010-11-08 07:21:53 51°13.662 2°55.961 6.5 285 5.3 98200 41
2010-11-08 07:21:57 51°13.662 2°55.961 6.2 343 5.3 98200 42
2010-11-08 07:22:03 51°13.662 2°55.961 1.9 348 5.3 98200 42
2010-11-08 07:22:07 51°13.662 2°55.961 0.2 348 5.3 98200 40
2010-11-08 07:22:13 51°13.662 2°55.961 0.1 352 5.3 98200 40
2010-11-08 07:22:18 51°13.662 2°55.961 -999 349 5.3 98200 41
2010-11-08 07:22:23 51°13.662 2°55.96 -999 283 5.3 98200 41
2010-11-08 07:22:27 51°13.662 2°55.961 -999 333 5.3 98200 41
2010-11-08 07:22:33 51°13.662 2°55.961 -999 283 5.3 98200 41
2010-11-08 07:22:38 51°13.662 2°55.96 -999 336 5.3 98200 41
2010-11-08 07:22:43 51°13.662 2°55.96 -999 283 5.3 98200 41
2010-11-08 07:22:47 51°13.662 2°55.961 -999 343 5.3 98200 41
2010-11-08 07:22:53 51°13.662 2°55.961 -999 283 5.3 98200 41
2010-11-08 07:22:58 51°13.662 2°55.961 -999 336 5.3 98200 41
2010-11-08 07:23:03 51°13.662 2°55.961 -999 284 5.3 98200 41
2010-11-08 07:23:07 51°13.662 2°55.961 -999 340 5.3 98200 41
2010-11-08 07:23:12 51°13.662 2°55.961 -999 283 5.3 98200 41
2010-11-08 07:23:18 51°13.662 2°55.96 -999 339 5.3 98200 41
2010-11-08 07:23:23 51°13.662 2°55.96 -999 283 5.3 98200 41
2010-11-08 07:23:27 51°13.662 2°55.961 -999 339 5.3 98200 40
2010-11-08 07:23:33 51°13.662 2°55.961 -999 283 5.3 98200 40
2010-11-08 07:23:38 51°13.662 2°55.961 -999 348 5.3 98200 41
2010-11-08 07:23:43 51°13.662 2°55.961 -999 349 5.3 98200 41
2010-11-08 07:23:47 51°13.662 2°55.961 -999 343 5.3 98200 41
2010-11-08 07:23:52 51°13.662 2°55.961 -999 283 5.3 98200 41
2010-11-08 07:23:57 51°13.662 2°55.961 -999 359 5.3 98200 41
2010-11-08 07:24:03 51°13.662 2°55.961 -999 283 5.3 98200 41
2010-11-08 07:24:07 51°13.662 2°55.961 -999 335 5.3 98200 41
2010-11-08 07:24:12 51°13.662 2°55.961 -999 283 5.3 98200 41
2010-11-08 07:24:17 51°13.662 2°55.961 -999 342 5.3 98200 42
2010-11-08 07:24:22 51°13.662 2°55.96 -999 283 5.3 98200 42
2010-11-08 07:24:27 51°13.662 2°55.96 -999 338 5.3 98200 42
2010-11-08 07:24:32 51°13.662 2°55.961 -999 283 5.3 98200 42
2010-11-08 07:24:37 51°13.662 2°55.961 -999 336 5.3 98200 41
2010-11-08 07:24:42 51°13.662 2°55.961 -999 283 5.3 98200 41
2010-11-08 07:24:47 51°13.662 2°55.961 -999 342 5.4 98190 41
2010-11-08 07:24:51 51°13.662 2°55.961 -999 283 5.4 98190 41
2010-11-08 07:24:57 51°13.662 2°55.96 -999 344 5.4 98200 42
2010-11-08 07:25:02 51°13.662 2°55.961 -999 283 5.4 98200 42
2010-11-08 07:25:07 51°13.662 2°55.961 -999 333 5.4 98190 41
2010-11-08 07:25:11 51°13.662 2°55.961 -999 283 5.4 98190 41
2010-11-08 07:25:17 51°13.662 2°55.96 -999 357 5.3 98200 41
2010-11-08 07:25:22 51°13.662 2°55.96 -999 283 5.3 98200 41
2010-11-08 07:25:27 51°13.662 2°55.961 -999 340 5.3 98200 41
2010-11-08 07:25:31 51°13.662 2°55.961 -999 283 5.3 98200 41
2010-11-08 07:25:37 51°13.662 2°55.96 -999 336 5.3 98190 41
2010-11-08 07:25:42 51°13.662 2°55.961 -999 283 5.3 98190 41
2010-11-08 07:25:47 51°13.662 2°55.961 -999 347 5.3 98190 41
2010-11-08 07:25:52 51°13.662 2°55.961 -999 351 5.3 98190 41
2010-11-08 07:25:57 51°13.662 2°55.961 -999 344 5.3 98200 41
2010-11-08 07:26:02 51°13.662 2°55.961 -999 283 5.3 98200 41
2010-11-08 07:26:07 51°13.662 2°55.961 -999 346 5.3 98190 40
2010-11-08 07:26:11 51°13.662 2°55.961 -999 283 5.3 98190 40
2010-11-08 07:26:17 51°13.662 2°55.961 -999 359 5.3 98190 41
2010-11-08 07:26:22 51°13.662 2°55.961 -999 283 5.3 98190 41
2010-11-08 07:26:27 51°13.662 2°55.961 -999 341 5.3 98190 41
2010-11-08 07:26:32 51°13.662 2°55.961 -999 350 5.3 98190 41
2010-11-08 07:26:37 51°13.662 2°55.961 -999 343 5.3 98190 41
2010-11-08 07:26:42 51°13.662 2°55.961 -999 283 5.3 98190 41
2010-11-08 07:26:47 51°13.662 2°55.961 -999 351 5.3 98190 41
2010-11-08 07:26:52 51°13.662 2°55.961 -999 353 5.3 98190 41
2010-11-08 07:26:57 51°13.662 2°55.961 -999 342 5.3 98190 41
2010-11-08 07:27:02 51°13.661 2°55.961 -999 351 5.3 98190 41
2010-11-08 07:27:07 51°13.661 2°55.961 -999 349 5.3 98190 41
2010-11-08 07:27:11 51°13.661 2°55.961 -999 283 5.3 98190 41
2010-11-08 07:27:17 51°13.661 2°55.96 -999 347 5.3 98190 41
2010-11-08 07:27:22 51°13.661 2°55.96 -999 349 5.3 98190 41
2010-11-08 07:27:27 51°13.661 2°55.961 -999 348 5.3 98180 41
2010-11-08 07:27:32 51°13.661 2°55.961 7.4 352 5.3 98180 41
2010-11-08 07:27:37 51°13.661 2°55.96 4.8 349 5.3 98180 41
2010-11-08 07:27:42 51°13.661 2°55.96 5.2 344 5.3 98180 41
2010-11-08 07:27:47 51°13.661 2°55.96 4.6 349 5.3 98190 44
2010-11-08 07:27:51 51°13.661 2°55.96 7.3 279 5.3 98190 44
2010-11-08 07:27:57 51°13.661 2°55.96 5 351 5.3 98190 41
2010-11-08 07:28:03 51°13.661 2°55.96 5.4 353 5.3 98190 41
2010-11-08 07:28:07 51°13.661 2°55.959 5.6 349 5.3 98180 40
2010-11-08 07:28:11 51°13.661 2°55.958 5 281 5.3 98180 40
2010-11-08 07:28:17 51°13.662 2°55.955 5.3 355 5.3 98190 42
2010-11-08 07:28:22 51°13.663 2°55.952 2.6 10 5.3 98190 42
2010-11-08 07:28:27 51°13.664 2°55.947 2.5 1 5.3 98180 42
2010-11-08 07:28:33 51°13.666 2°55.94 2.2 355 5.3 98180 42
2010-11-08 07:28:39 51°13.668 2°55.932 2.6 2 5.3 98190 42
2010-11-08 07:28:44 51°13.67 2°55.925 3.2 359 5.3 98190 42
2010-11-08 07:28:50 51°13.672 2°55.916 4.3 7 5.4 98190 41
2010-11-08 07:28:55 51°13.674 2°55.908 3.4 9 5.4 98190 41
2010-11-08 07:29:01 51°13.677 2°55.897 2.8 4 5.3 98190 40
2010-11-08 07:29:06 51°13.679 2°55.888 0.4 11 5.3 98190 40
2010-11-08 07:29:10 51°13.68 2°55.881 0.1 8 5.3 98190 40
2010-11-08 07:29:15 51°13.682 2°55.871 0.1 9 5.3 98190 40
2010-11-08 07:29:21 51°13.684 2°55.858 -999 15 5.3 98190 41
2010-11-08 07:29:26 51°13.685 2°55.847 -999 25 5.3 98190 41
2010-11-08 07:29:31 51°13.686 2°55.836 -999 13 5.3 98190 41
2010-11-08 07:29:35 51°13.687 2°55.827 -999 8 5.3 98190 41
2010-11-08 07:29:41 51°13.687 2°55.815 -999 20 5.3 98180 41
2010-11-08 07:29:46 51°13.688 2°55.803 -999 25 5.3 98180 41
2010-11-08 07:29:51 51°13.688 2°55.793 -999 19 5.3 98180 41
2010-11-08 07:29:55 51°13.688 2°55.785 -999 28 5.3 98180 41
2010-11-08 07:30:01 51°13.687 2°55.773 -999 24 5.3 98190 41
2010-11-08 07:30:06 51°13.687 2°55.763 -999 24 5.3 98190 41
2010-11-08 07:30:11 51°13.687 2°55.755 -999 26 5.3 98190 41
2010-11-08 07:30:15 51°13.687 2°55.749 -999 24 5.3 98190 41
2010-11-08 07:30:20 51°13.687 2°55.743 -999 34 5.3 98190 41
2010-11-08 07:30:25 51°13.687 2°55.74 7.1 28 5.3 98190 41
2010-11-08 07:30:30 51°13.687 2°55.737 5.6 26 5.3 98190 41
2010-11-08 07:30:35 51°13.688 2°55.736 6.6 25 5.3 98190 41
2010-11-08 07:30:39 51°13.688 2°55.735 5.4 24 5.3 98180 41
2010-11-08 07:30:44 51°13.69 2°55.735 3.2 34 5.3 98180 41
2010-11-08 07:30:49 51°13.691 2°55.735 5.4 27 5.3 98180 41
2010-11-08 07:30:54 51°13.694 2°55.736 3.9 42 5.3 98180 41
2010-11-08 07:30:59 51°13.696 2°55.736 3.3 37 5.3 98170 40
2010-11-08 07:31:03 51°13.698 2°55.737 3.1 38 5.3 98170 40
2010-11-08 07:31:08 51°13.702 2°55.737 3.4 45 5.3 98180 42
2010-11-08 07:31:13 51°13.705 2°55.736 3.8 81 5.3 98180 42
2010-11-08 07:31:18 51°13.709 2°55.735 4.7 41 5.3 98180 40
2010-11-08 07:31:23 51°13.713 2°55.734 5.2 37 5.3 98180 40
2010-11-08 07:31:27 51°13.717 2°55.733 5.3 43 5.3 98190 39
2010-11-08 07:31:31 51°13.722 2°55.731 3.8 79 5.3 98190 39
2010-11-08 07:31:37 51°13.728 2°55.728 2.8 21 5.3 98180 42
2010-11-08 07:31:42 51°13.735 2°55.724 1.4 77 5.3 98180 42
2010-11-08 07:31:47 51°13.742 2°55.719 0.2 31 5.3 98180 40
2010-11-08 07:31:52 51°13.75 2°55.714 0.2 45 5.3 98180 40
2010-11-08 07:31:57 51°13.757 2°55.708 0.1 23 5.3 98180 42
2010-11-08 07:32:02 51°13.766 2°55.701 0.1 77 5.3 98180 42
2010-11-08 07:32:07 51°13.774 2°55.693 1.8 23 5.3 98180 41
2010-11-08 07:32:13 51°13.785 2°55.684 1.4 82 5.3 98180 41
2010-11-08 07:32:18 51°13.795 2°55.675 0.9 38 5.3 98180 41
2010-11-08 07:32:23 51°13.805 2°55.667 2.3 79 5.3 98180 41
2010-11-08 07:32:27 51°13.813 2°55.659 1.5 26 5.3 98190 39
2010-11-08 07:32:32 51°13.824 2°55.651 1.8 72 5.3 98190 39
2010-11-08 07:32:37 51°13.835 2°55.641 1.1 44 5.3 98180 41
2010-11-08 07:32:42 51°13.847 2°55.632 0.2 81 5.3 98180 41
2010-11-08 07:32:47 51°13.858 2°55.623 0.1 268 5.3 98180 39
2010-11-08 07:32:51 51°13.868 2°55.616 0.1 283 5.3 98180 39
2010-11-08 07:32:57 51°13.882 2°55.604 -999 36 5.4 98180 41
2010-11-08 07:33:02 51°13.895 2°55.596 1.2 289 5.4 98180 41
2010-11-08 07:33:07 51°13.907 2°55.586 1.9 40 5.4 98180 41
2010-11-08 07:33:11 51°13.917 2°55.579 2.7 79 5.4 98180 41
2010-11-08 07:33:17 51°13.932 2°55.568 1.5 30 5.4 98180 42
2010-11-08 07:33:22 51°13.945 2°55.559 0.1 287 5.4 98180 42
2010-11-08 07:33:27 51°13.956 2°55.549 1.9 256 5.4 98180 43
2010-11-08 07:33:31 51°13.966 2°55.542 1.3 281 5.4 98180 43
2010-11-08 07:33:37 51°13.981 2°55.53 2.1 36 5.4 98180 41
2010-11-08 07:33:43 51°13.996 2°55.518 1.6 283 5.4 98180 41
2010-11-08 07:33:47 51°14.005 2°55.509 1.5 264 5.4 98180 42
2010-11-08 07:33:52 51°14.018 2°55.5 1.9 77 5.4 98180 42
2010-11-08 07:33:57 51°14.03 2°55.489 3 38 5.4 98180 42
2010-11-08 07:34:02 51°14.042 2°55.479 1.8 78 5.4 98180 42
2010-11-08 07:34:07 51°14.055 2°55.468 2.3 29 5.4 98180 39
2010-11-08 07:34:12 51°14.067 2°55.458 0.6 79 5.4 98180 39
2010-11-08 07:34:17 51°14.08 2°55.448 4.5 26 5.4 98170 40
2010-11-08 07:34:22 51°14.093 2°55.438 3 75 5.4 98170 40
2010-11-08 07:34:27 51°14.106 2°55.428 2.8 35 5.4 98180 40
2010-11-08 07:34:31 51°14.116 2°55.42 0.9 72 5.4 98180 40
2010-11-08 07:34:37 51°14.131 2°55.408 0.6 30 5.4 98170 43
2010-11-08 07:34:42 51°14.145 2°55.398 0.1 77 5.4 98170 43
2010-11-08 07:34:47 51°14.158 2°55.387 0.1 34 5.4 98180 40
2010-11-08 07:34:53 51°14.173 2°55.375 -999 77 5.4 98180 40
2010-11-08 07:34:59 51°14.189 2°55.361 -999 22 5.4 98170 41
2010-11-08 07:35:04 51°14.202 2°55.35 -999 77 5.4 98170 41
2010-11-08 07:35:10 51°14.217 2°55.335 -999 23 5.4 98170 41
2010-11-08 07:35:15 51°14.229 2°55.323 -999 77 5.4 98170 41
2010-11-08 07:35:20 51°14.242 2°55.311 -999 34 5.4 98170 41
2010-11-08 07:35:26 51°14.257 2°55.296 -999 77 5.4 98170 41
2010-11-08 07:35:31 51°14.27 2°55.283 -999 266 5.5 98170 41
2010-11-08 07:35:35 51°14.28 2°55.273 -999 286 5.5 98170 41
2010-11-08 07:35:41 51°14.295 2°55.257 1.3 33 5.5 98170 41
2010-11-08 07:35:45 51°14.306 2°55.247 0.4 77 5.5 98170 41
2010-11-08 07:35:50 51°14.319 2°55.234 0.1 35 5.4 98170 41
2010-11-08 07:35:55 51°14.331 2°55.221 0.3 77 5.4 98170 41
2010-11-08 07:36:00 51°14.345 2°55.207 0.1 18 5.5 98170 43
2010-11-08 07:36:05 51°14.358 2°55.194 0.1 77 5.5 98170 43
2010-11-08 07:36:10 51°14.371 2°55.181 -999 259 5.4 98180 41
2010-11-08 07:36:15 51°14.385 2°55.168 -999 78 5.4 98180 41
2010-11-08 07:36:19 51°14.396 2°55.158 -999 270 5.4 98170 41
2010-11-08 07:36:24 51°14.41 2°55.145 -999 283 5.4 98170 41
2010-11-08 07:36:29 51°14.424 2°55.133 -999 254 5.4 98170 41
2010-11-08 07:36:34 51°14.439 2°55.12 -999 283 5.4 98170 41
2010-11-08 07:36:39 51°14.453 2°55.107 -999 262 5.4 98170 41
2010-11-08 07:36:43 51°14.464 2°55.097 -999 283 5.4 98170 41
2010-11-08 07:36:48 51°14.478 2°55.083 -999 268 5.4 98170 40
2010-11-08 07:36:53 51°14.493 2°55.07 -999 283 5.4 98170 40
2010-11-08 07:36:58 51°14.508 2°55.057 -999 268 5.5 98170 41
2010-11-08 07:37:03 51°14.522 2°55.043 -999 77 5.5 98170 41
2010-11-08 07:37:07 51°14.532 2°55.029 2.2 37 5.5 98170 41
2010-11-08 07:37:12 51°14.546 2°55.013 2.3 280 5.5 98170 41
2010-11-08 07:37:17 51°14.558 2°54.994 2.9 262 5.5 98170 41
2010-11-08 07:37:22 51°14.57 2°54.974 3.7 286 5.5 98170 41
2010-11-08 07:37:27 51°14.582 2°54.954 2.2 263 5.5 98170 40
2010-11-08 07:37:31 51°14.59 2°54.936 3 286 5.5 98170 40
2010-11-08 07:37:37 51°14.602 2°54.908 1.1 263 5.5 98170 41
2010-11-08 07:37:42 51°14.611 2°54.884 5.2 284 5.5 98170 41
2010-11-08 07:37:47 51°14.62 2°54.86 5.7 23 5.5 98170 43
2010-11-08 07:37:52 51°14.627 2°54.834 6.3 282 5.5 98170 43
2010-11-08 07:37:57 51°14.633 2°54.807 6.8 253 5.5 98170 42
2010-11-08 07:38:02 51°14.637 2°54.78 6.8 283 5.5 98170 42
2010-11-08 07:38:07 51°14.64 2°54.752 7.5 19 5.5 98170 42
2010-11-08 07:38:11 51°14.641 2°54.729 6.1 285 5.5 98170 42
2010-11-08 07:38:17 51°14.641 2°54.695 6.4 240 5.5 98160 40
2010-11-08 07:38:22 51°14.64 2°54.666 8.7 285 5.5 98160 40
2010-11-08 07:38:27 51°14.637 2°54.638 8.3 30 5.5 98160 40
2010-11-08 07:38:31 51°14.633 2°54.616 8.8 279 5.5 98160 40
2010-11-08 07:38:37 51°14.627 2°54.583 8.9 235 5.5 98160 41
2010-11-08 07:38:42 51°14.619 2°54.558 10.3 289 5.5 98160 41
2010-11-08 07:38:47 51°14.61 2°54.533 8.7 34 5.5 98150 42
2010-11-08 07:38:51 51°14.603 2°54.513 11 282 5.5 98150 42
2010-11-08 07:38:57 51°14.591 2°54.484 12.3 24 5.5 98140 40
2010-11-08 07:39:02 51°14.581 2°54.46 12.4 279 5.5 98140 40
2010-11-08 07:39:07 51°14.57 2°54.436 12.4 25 5.5 98140 41
2010-11-08 07:39:11 51°14.561 2°54.417 12.4 283 5.5 98140 41
2010-11-08 07:39:17 51°14.548 2°54.389 12.1 34 5.5 98130 41
2010-11-08 07:39:22 51°14.536 2°54.367 13.8 287 5.5 98130 41
2010-11-08 07:39:27 51°14.523 2°54.344 12.5 24 5.5 98120 40
2010-11-08 07:39:31 51°14.514 2°54.326 12.7 283 5.5 98120 40
2010-11-08 07:39:37 51°14.5 2°54.298 14.9 34 5.5 98120 42
2010-11-08 07:39:42 51°14.489 2°54.274 14.8 283 5.5 98120 42
2010-11-08 07:39:47 51°14.477 2°54.251 12.2 23 5.5 98120 41
2010-11-08 07:39:52 51°14.464 2°54.229 13.4 286 5.5 98120 41
2010-11-08 07:39:57 51°14.452 2°54.205 12.2 34 5.5 98120 41
2010-11-08 07:40:02 51°14.44 2°54.183 12.3 288 5.5 98120 41
2010-11-08 07:40:07 51°14.429 2°54.159 11.3 31 5.5 98100 41
2010-11-08 07:40:11 51°14.419 2°54.14 11.9 282 5.5 98100 41
2010-11-08 07:40:17 51°14.406 2°54.111 12 32 5.5 98120 41
2010-11-08 07:40:22 51°14.395 2°54.087 11.3 280 5.5 98120 41
2010-11-08 07:40:27 51°14.384 2°54.063 11 33 5.5 98120 40
2010-11-08 07:40:32 51°14.373 2°54.038 12.1 280 5.5 98120 40
2010-11-08 07:40:37 51°14.362 2°54.013 13.5 35 5.5 98120 41
2010-11-08 07:40:42 51°14.351 2°53.989 11.8 283 5.5 98120 41
2010-11-08 07:40:47 51°14.341 2°53.963 13.5 235 5.5 98130 42
2010-11-08 07:40:51 51°14.333 2°53.943 11 286 5.5 98130 42
2010-11-08 07:40:57 51°14.321 2°53.912 11.6 26 5.5 98110 41
2010-11-08 07:41:02 51°14.311 2°53.887 12.7 285 5.5 98110 41
2010-11-08 07:41:07 51°14.301 2°53.86 11.6 238 5.5 98130 42
2010-11-08 07:41:11 51°14.294 2°53.839 12.2 284 5.5 98130 42
2010-11-08 07:41:17 51°14.282 2°53.808 13 19 5.5 98130 41
2010-11-08 07:41:22 51°14.272 2°53.782 12.9 284 5.5 98130 41
2010-11-08 07:41:27 51°14.262 2°53.756 14.1 20 5.5 98120 41
2010-11-08 07:41:32 51°14.253 2°53.729 12 285 5.5 98120 41
2010-11-08 07:41:37 51°14.243 2°53.703 12.4 242 5.5 98130 41
2010-11-08 07:41:42 51°14.232 2°53.677 11.2 285 5.5 98130 41
2010-11-08 07:41:47 51°14.222 2°53.651 12 21 5.6 98110 42
2010-11-08 07:41:51 51°14.214 2°53.631 11.2 284 5.6 98110 42
2010-11-08 07:41:57 51°14.201 2°53.6 12.2 30 5.6 98120 42
2010-11-08 07:42:02 51°14.191 2°53.574 11.1 279 5.6 98120 42
2010-11-08 07:42:07 51°14.181 2°53.548 13.9 21 5.6 98120 40
2010-11-08 07:42:11 51°14.172 2°53.527 11.8 286 5.6 98120 40
2010-11-08 07:42:17 51°14.16 2°53.496 11.3 34 5.6 98120 40
2010-11-08 07:42:22 51°14.15 2°53.469 9.4 283 5.6 98120 40
2010-11-08 07:42:27 51°14.139 2°53.444 11 36 5.6 98130 42
2010-11-08 07:42:32 51°14.129 2°53.417 13 283 5.6 98130 42
2010-11-08 07:42:37 51°14.118 2°53.391 13 22 5.6 98120 41
2010-11-08 07:42:42 51°14.108 2°53.365 11.8 279 5.6 98120 41
2010-11-08 07:42:47 51°14.098 2°53.339 13.1 37 5.5 98130 42
2010-11-08 07:42:52 51°14.088 2°53.312 12.5 288 5.5 98130 42
2010-11-08 07:42:57 51°14.077 2°53.286 13.6 36 5.5 98120 40
2010-11-08 07:43:02 51°14.067 2°53.26 12.7 284 5.5 98120 40
2010-11-08 07:43:07 51°14.056 2°53.233 10.6 36 5.5 98130 41
2010-11-08 07:43:11 51°14.048 2°53.212 10.3 279 5.5 98130 41
2010-11-08 07:43:17 51°14.035 2°53.181 12.8 235 5.5 98120 41
2010-11-08 07:43:22 51°14.025 2°53.154 10.3 284 5.5 98120 41
2010-11-08 07:43:27 51°14.014 2°53.128 14.1 19 5.5 98120 42
2010-11-08 07:43:31 51°14.005 2°53.107 10.6 282 5.5 98120 42
2010-11-08 07:43:37 51°13.992 2°53.076 11.7 35 5.5 98120 42
2010-11-08 07:43:42 51°13.981 2°53.05 11.8 284 5.5 98120 42
2010-11-08 07:43:47 51°13.97 2°53.024 16.8 24 5.5 98120 41
2010-11-08 07:43:52 51°13.959 2°52.997 12.9 283 5.5 98120 41
2010-11-08 07:43:57 51°13.948 2°52.971 12.2 239 5.5 98120 42
2010-11-08 07:44:02 51°13.938 2°52.944 15.9 284 5.5 98120 42
2010-11-08 07:44:07 51°13.926 2°52.918 16.1 22 5.5 98110 41
2010-11-08 07:44:11 51°13.918 2°52.897 13.7 285 5.5 98110 41
2010-11-08 07:44:17 51°13.905 2°52.865 14.5 33 5.5 98120 40
2010-11-08 07:44:22 51°13.894 2°52.839 15.1 279 5.5 98120 40
2010-11-08 07:44:27 51°13.883 2°52.812 16.7 23 5.5 98110 42
2010-11-08 07:44:31 51°13.874 2°52.791 13.3 281 5.5 98110 42
2010-11-08 07:44:37 51°13.861 2°52.76 13 35 5.5 98100 42
2010-11-08 07:44:42 51°13.85 2°52.734 14.6 280 5.5 98100 42
2010-11-08 07:44:47 51°13.838 2°52.708 14.4 33 5.5 98110 41
2010-11-08 07:44:51 51°13.829 2°52.688 13.9 282 5.5 98110 41
2010-11-08 07:44:57 51°13.815 2°52.658 16.7 34 5.5 98110 41
2010-11-08 07:45:02 51°13.802 2°52.633 16.1 281 5.5 98110 41
2010-11-08 07:45:07 51°13.791 2°52.607 12.8 237 5.5 98100 41
2010-11-08 07:45:12 51°13.779 2°52.581 11.4 283 5.5 98100 41
2010-11-08 07:45:17 51°13.769 2°52.555 13.9 24 5.5 98100 41
2010-11-08 07:45:22 51°13.758 2°52.528 12 279 5.5 98100 41
2010-11-08 07:45:27 51°13.748 2°52.5 14.6 242 5.5 98100 41
2010-11-08 07:45:31 51°13.74 2°52.478 13.8 287 5.5 98100 41
2010-11-08 07:45:37 51°13.728 2°52.445 14.6 20 5.5 98110 41
2010-11-08 07:45:42 51°13.719 2°52.417 11.7 281 5.5 98110 41
2010-11-08 07:45:47 51°13.71 2°52.389 12.3 21 5.5 98120 41
2010-11-08 07:45:52 51°13.701 2°52.361 10 282 5.5 98120 41
2010-11-08 07:45:57 51°13.692 2°52.332 12.3 32 5.5 98100 41
2010-11-08 07:46:02 51°13.682 2°52.304 9.3 279 5.5 98100 41
2010-11-08 07:46:07 51°13.673 2°52.275 10.7 24 5.5 98110 41
2010-11-08 07:46:11 51°13.666 2°52.253 11.1 283 5.5 98110 41
2010-11-08 07:46:17 51°13.655 2°52.219 12.5 33 5.5 98120 41
2010-11-08 07:46:22 51°13.645 2°52.191 12.6 280 5.5 98120 41
2010-11-08 07:46:27 51°13.635 2°52.163 12.6 25 5.5 98120 41
2010-11-08 07:46:31 51°13.628 2°52.14 14.5 285 5.5 98120 41
2010-11-08 07:46:37 51°13.617 2°52.106 13 239 5.5 98120 41
2010-11-08 07:46:42 51°13.608 2°52.078 10.6 287 5.5 98120 41
2010-11-08 07:46:47 51°13.599 2°52.049 12.9 24 5.5 98110 41
2010-11-08 07:46:52 51°13.59 2°52.02 12.4 287 5.5 98110 41
2010-11-08 07:46:57 51°13.58 2°51.992 11.3 19 5.5 98110 42
2010-11-08 07:47:02 51°13.571 2°51.963 11.8 -999 5.5 98110 42
2010-11-08 07:47:07 51°13.562 2°51.935 11.9 21 5.5 98120 42
2010-11-08 07:47:11 51°13.555 2°51.912 14.4 284 5.5 98120 42
2010-11-08 07:47:17 51°13.545 2°51.877 13.7 239 5.5 98110 41
2010-11-08 07:47:22 51°13.539 2°51.849 12.1 285 5.5 98110 41
2010-11-08 07:47:27 51°13.533 2°51.822 13.2 245 5.5 98110 40
2010-11-08 07:47:32 51°13.527 2°51.794 9.5 278 5.5 98110 40
2010-11-08 07:47:37 51°13.523 2°51.768 8.9 247 5.6 98100 41
2010-11-08 07:47:42 51°13.518 2°51.744 9 285 5.6 98100 41
2010-11-08 07:47:47 51°13.513 2°51.721 10.8 248 5.6 98120 42
2010-11-08 07:47:51 51°13.51 2°51.704 9.4 282 5.6 98120 42
2010-11-08 07:47:57 51°13.505 2°51.678 11.2 248 5.5 98120 42
2010-11-08 07:48:02 51°13.5 2°51.658 9.1 -999 5.5 98120 42
2010-11-08 07:48:07 51°13.495 2°51.64 9.6 20 5.5 98120 40
2010-11-08 07:48:12 51°13.49 2°51.623 10.1 283 5.5 98120 40
2010-11-08 07:48:17 51°13.485 2°51.607 13.3 248 5.5 98120 41
2010-11-08 07:48:22 51°13.48 2°51.591 12.2 279 5.5 98120 41
2010-11-08 07:48:27 51°13.476 2°51.577 10.2 245 5.5 98130 42
2010-11-08 07:48:31 51°13.472 2°51.566 10.5 282 5.5 98130 42
2010-11-08 07:48:37 51°13.467 2°51.549 9.4 252 5.5 98130 42
2010-11-08 07:48:42 51°13.463 2°51.536 9.5 285 5.5 98110 42
2010-11-08 07:48:47 51°13.459 2°51.524 9.7 246 5.5 98120 41
2010-11-08 07:48:51 51°13.456 2°51.514 12.3 282 5.5 98120 41
2010-11-08 07:48:57 51°13.452 2°51.502 10.8 250 5.5 98120 41
2010-11-08 07:49:02 51°13.449 2°51.491 11.2 288 5.6 98120 41
2010-11-08 07:49:07 51°13.447 2°51.482 11.7 251 5.6 98130 41
2010-11-08 07:49:11 51°13.445 2°51.475 9.7 278 5.6 98130 41
2010-11-08 07:49:17 51°13.443 2°51.465 12.6 256 5.6 98130 41
2010-11-08 07:49:22 51°13.441 2°51.457 10.7 281 5.6 98130 40
2010-11-08 07:49:27 51°13.44 2°51.451 9 264 5.6 98130 40
2010-11-08 07:49:32 51°13.439 2°51.446 5.8 284 5.6 98150 41
2010-11-08 07:49:37 51°13.439 2°51.441 6.1 267 5.6 98150 41
2010-11-08 07:49:42 51°13.438 2°51.438 8.5 287 5.6 98150 41
2010-11-08 07:49:47 51°13.437 2°51.435 9.8 43 5.6 98150 41
2010-11-08 07:49:51 51°13.437 2°51.433 9.9 83 5.6 98150 42
2010-11-08 07:49:57 51°13.436 2°51.431 8 34 5.7 98140 42
2010-11-08 07:50:02 51°13.436 2°51.43 9.7 76 5.7 98140 42
2010-11-08 07:50:07 51°13.435 2°51.429 9.5 32 5.7 98150 38
2010-11-08 07:50:11 51°13.434 2°51.428 10.9 76 5.7 98150 38
2010-11-08 07:50:18 51°13.433 2°51.426 7.6 37 5.7 98140 42
2010-11-08 07:50:23 51°13.433 2°51.425 8.2 77 5.7 98140 42
2010-11-08 07:50:29 51°13.432 2°51.423 9.1 38 5.7 98140 42
2010-11-08 07:50:35 51°13.431 2°51.421 8.3 285 5.7 98140 42
2010-11-08 07:50:39 51°13.431 2°51.419 9.3 36 5.7 98140 42
2010-11-08 07:50:45 51°13.43 2°51.417 9.3 74 5.6 98140 42
2010-11-08 07:50:51 51°13.429 2°51.415 8.9 32 5.7 98140 42
2010-11-08 07:50:55 51°13.429 2°51.414 9.1 73 5.7 98140 42
2010-11-08 07:51:00 51°13.428 2°51.412 7.4 30 5.7 98140 41
2010-11-08 07:51:05 51°13.428 2°51.409 7.7 26 5.7 98140 41
2010-11-08 07:51:11 51°13.428 2°51.407 10.5 35 5.7 98130 41
2010-11-08 07:51:15 51°13.427 2°51.405 10.8 81 5.7 98130 41
2010-11-08 07:51:20 51°13.427 2°51.403 9.7 270 5.7 98130 41
2010-11-08 07:51:25 51°13.426 2°51.401 9.8 75 5.7 98140 41
2010-11-08 07:51:30 51°13.426 2°51.398 10 35 5.7 98140 41
2010-11-08 07:51:35 51°13.426 2°51.396 10.4 78 5.7 98130 40
2010-11-08 07:51:40 51°13.425 2°51.393 8.2 36 5.7 98130 40
2010-11-08 07:51:45 51°13.425 2°51.391 10.5 76 5.6 98130 41
2010-11-08 07:51:50 51°13.425 2°51.388 11.4 34 5.6 98130 41
2010-11-08 07:51:55 51°13.425 2°51.386 10.2 79 5.6 98130 42
2010-11-08 07:51:59 51°13.425 2°51.384 9.7 38 5.6 98130 42
2010-11-08 07:52:04 51°13.424 2°51.381 10.4 282 5.6 98130 42
2010-11-08 07:52:09 51°13.424 2°51.379 9.3 267 5.6 98140 42
2010-11-08 07:52:14 51°13.424 2°51.376 9.7 76 5.6 98140 42
2010-11-08 07:52:19 51°13.424 2°51.374 10.8 33 5.6 98140 42
2010-11-08 07:52:23 51°13.424 2°51.371 11.2 78 5.6 98140 42
2010-11-08 07:52:28 51°13.424 2°51.369 9.6 270 5.6 98140 40
2010-11-08 07:52:33 51°13.424 2°51.366 7.7 76 5.6 98140 40
2010-11-08 07:52:38 51°13.424 2°51.363 8.8 270 5.6 98140 41
2010-11-08 07:52:43 51°13.424 2°51.36 10 74 5.6 98140 41
2010-11-08 07:52:47 51°13.424 2°51.358 10.6 32 5.6 98150 41
2010-11-08 07:52:52 51°13.424 2°51.354 8.3 283 5.6 98150 41
2010-11-08 07:52:57 51°13.423 2°51.352 9.5 36 5.6 98150 41
2010-11-08 07:53:02 51°13.423 2°51.349 9.2 81 5.5 98140 40
2010-11-08 07:53:07 51°13.423 2°51.346 9.8 34 5.6 98130 41
2010-11-08 07:53:11 51°13.423 2°51.344 11.4 33 5.6 98130 41
2010-11-08 07:53:17 51°13.423 2°51.34 10.7 33 5.5 98130 42
2010-11-08 07:53:22 51°13.423 2°51.338 8.7 290 5.5 98130 42
2010-11-08 07:53:27 51°13.423 2°51.335 7.5 269 5.5 98130 42
2010-11-08 07:53:32 51°13.423 2°51.332 8.4 284 5.5 98140 42
2010-11-08 07:53:37 51°13.423 2°51.328 8.6 28 5.5 98140 42
2010-11-08 07:53:42 51°13.423 2°51.325 9.9 288 5.5 98140 42
2010-11-08 07:53:47 51°13.423 2°51.322 10.3 270 5.5 98140 42
2010-11-08 07:53:52 51°13.422 2°51.32 10.8 79 5.4 98140 42
2010-11-08 07:53:57 51°13.423 2°51.316 8.7 29 5.4 98140 42
2010-11-08 07:54:02 51°13.423 2°51.313 8.8 79 5.4 98130 41
2010-11-08 07:54:07 51°13.423 2°51.31 8.3 30 5.4 98130 41
2010-11-08 07:54:12 51°13.423 2°51.307 8.5 77 5.4 98140 41
2010-11-08 07:54:17 51°13.423 2°51.303 9 268 5.5 98130 42
2010-11-08 07:54:22 51°13.423 2°51.3 8.1 281 5.5 98130 42
2010-11-08 07:54:27 51°13.423 2°51.297 7.7 263 5.5 98130 42
2010-11-08 07:54:31 51°13.422 2°51.294 6.4 281 5.4 98140 41
2010-11-08 07:54:37 51°13.422 2°51.29 6.4 267 5.5 98130 40
2010-11-08 07:54:42 51°13.422 2°51.287 6.9 282 5.5 98130 40
2010-11-08 07:54:47 51°13.422 2°51.284 7.5 267 5.5 98130 43
2010-11-08 07:54:51 51°13.422 2°51.281 7.4 279 5.5 98130 43
2010-11-08 07:54:57 51°13.422 2°51.277 9.9 268 5.5 98130 43
2010-11-08 07:55:02 51°13.422 2°51.273 6.8 285 5.6 98120 42
2010-11-08 07:55:07 51°13.423 2°51.27 5.9 267 5.6 98130 42
2010-11-08 07:55:11 51°13.422 2°51.267 7.3 287 5.6 98130 42
2010-11-08 07:55:17 51°13.422 2°51.263 6.1 270 5.6 98130 42
2010-11-08 07:55:22 51°13.422 2°51.259 5.8 286 5.6 98140 41
2010-11-08 07:55:27 51°13.422 2°51.255 6.3 266 5.6 98130 40
2010-11-08 07:55:32 51°13.421 2°51.25 9.2 283 5.6 98130 40
2010-11-08 07:55:37 51°13.421 2°51.245 11.9 257 5.6 98130 40
2010-11-08 07:55:42 51°13.421 2°51.24 9.6 280 5.7 98130 41
2010-11-08 07:55:47 51°13.42 2°51.235 10.9 257 5.7 98130 43
2010-11-08 07:55:51 51°13.42 2°51.23 9.3 283 5.7 98130 43
2010-11-08 07:55:57 51°13.419 2°51.223 10.3 257 5.7 98130 43
2010-11-08 07:56:02 51°13.418 2°51.217 10.1 284 5.7 98130 42
2010-11-08 07:56:07 51°13.416 2°51.211 9.7 252 5.7 98130 42
2010-11-08 07:56:11 51°13.415 2°51.206 12.2 283 5.7 98120 42
2010-11-08 07:56:17 51°13.414 2°51.198 9.8 244 5.7 98120 41
2010-11-08 07:56:22 51°13.413 2°51.191 10.5 285 5.7 98120 41
2010-11-08 07:56:27 51°13.411 2°51.185 9.6 243 5.7 98120 41
2010-11-08 07:56:31 51°13.409 2°51.18 8.8 284 5.7 98120 41
2010-11-08 07:56:37 51°13.406 2°51.172 9.5 244 5.7 98120 41
2010-11-08 07:56:42 51°13.404 2°51.166 10 282 5.6 98120 40
2010-11-08 07:56:47 51°13.401 2°51.159 8.7 30 5.6 98120 40
2010-11-08 07:56:52 51°13.398 2°51.153 8.7 283 5.6 98120 41
2010-11-08 07:56:57 51°13.395 2°51.147 9 29 5.7 98110 42
2010-11-08 07:57:02 51°13.392 2°51.142 8.5 281 5.7 98110 42
2010-11-08 07:57:07 51°13.389 2°51.135 11.2 31 5.7 98110 42
2010-11-08 07:57:12 51°13.385 2°51.13 9.4 287 5.7 98110 41
2010-11-08 07:57:17 51°13.381 2°51.125 9.1 34 5.7 98110 41
2010-11-08 07:57:22 51°13.377 2°51.12 9.5 281 5.7 98100 42
2010-11-08 07:57:27 51°13.373 2°51.116 9.1 319 5.7 98100 41
2010-11-08 07:57:31 51°13.37 2°51.113 8.3 280 5.7 98100 41
2010-11-08 07:57:37 51°13.365 2°51.108 10.3 317 5.7 98100 41
2010-11-08 07:57:42 51°13.36 2°51.105 9.4 284 5.7 98100 41
2010-11-08 07:57:47 51°13.356 2°51.102 9.2 326 5.7 98100 43
2010-11-08 07:57:51 51°13.353 2°51.1 9.7 283 5.7 98100 43
2010-11-08 07:57:57 51°13.347 2°51.097 8.3 329 5.7 98100 41
2010-11-08 07:58:02 51°13.343 2°51.096 9.7 330 5.7 98100 41
2010-11-08 07:58:07 51°13.338 2°51.095 9.7 331 5.7 98090 40
2010-11-08 07:58:11 51°13.335 2°51.094 8.3 279 5.7 98090 40
2010-11-08 07:58:17 51°13.329 2°51.093 10.7 335 5.7 98090 40
2010-11-08 07:58:22 51°13.324 2°51.093 10 280 5.7 98090 41
2010-11-08 07:58:27 51°13.319 2°51.092 9.3 329 5.7 98090 41
2010-11-08 07:58:32 51°13.313 2°51.093 11.5 282 5.6 98090 41
2010-11-08 07:58:37 51°13.307 2°51.093 11.4 331 5.6 98090 41
2010-11-08 07:58:42 51°13.301 2°51.093 11 283 5.6 98090 41
2010-11-08 07:58:47 51°13.295 2°51.094 10.8 328 5.6 98090 41
2010-11-08 07:58:51 51°13.29 2°51.094 12.3 283 5.6 98080 40
2010-11-08 07:58:57 51°13.282 2°51.094 11.1 326 5.6 98080 40
2010-11-08 07:59:02 51°13.275 2°51.094 10.5 283 5.6 98080 40
2010-11-08 07:59:07 51°13.269 2°51.093 10.9 327 5.6 98080 40
2010-11-08 07:59:11 51°13.263 2°51.093 11.4 284 5.6 98080 40
2010-11-08 07:59:17 51°13.254 2°51.092 10.4 327 5.5 98080 41
2010-11-08 07:59:22 51°13.247 2°51.09 10.4 283 5.5 98080 41
2010-11-08 07:59:27 51°13.24 2°51.087 9.3 320 5.5 98080 42
2010-11-08 07:59:31 51°13.234 2°51.085 9.2 280 5.5 98080 42
2010-11-08 07:59:37 51°13.225 2°51.08 9.9 33 5.5 98080 42
2010-11-08 07:59:42 51°13.218 2°51.076 10.6 288 5.5 98080 40
2010-11-08 07:59:47 51°13.211 2°51.071 10 29 5.5 98080 40
2010-11-08 07:59:51 51°13.205 2°51.067 10.2 281 5.5 98080 40
2010-11-08 07:59:57 51°13.197 2°51.06 10.2 319 5.5 98080 40
2010-11-08 08:00:02 51°13.191 2°51.054 9.3 20 5.5 98080 42
2010-11-08 08:00:07 51°13.185 2°51.048 9.4 32 5.5 98070 41
2010-11-08 08:00:12 51°13.179 2°51.042 7.5 285 5.5 98070 41
2010-11-08 08:00:17 51°13.173 2°51.036 8.3 34 5.5 98070 41
2010-11-08 08:00:22 51°13.168 2°51.029 10.6 286 5.5 98070 41
2010-11-08 08:00:27 51°13.162 2°51.024 9.5 34 5.6 98080 42
2010-11-08 08:00:31 51°13.158 2°51.018 8 281 5.6 98080 42
2010-11-08 08:00:37 51°13.153 2°51.011 9.1 35 5.6 98070 42
2010-11-08 08:00:42 51°13.148 2°51.004 10.2 286 5.6 98070 42
2010-11-08 08:00:47 51°13.144 2°50.998 9.9 30 5.6 98070 42
2010-11-08 08:00:51 51°13.14 2°50.993 9 282 5.6 98070 40
2010-11-08 08:00:57 51°13.135 2°50.985 10.5 237 5.6 98070 41
2010-11-08 08:01:02 51°13.131 2°50.979 8.8 282 5.6 98070 41
2010-11-08 08:01:07 51°13.127 2°50.972 10.9 36 5.6 98070 40
2010-11-08 08:01:11 51°13.124 2°50.967 9.8 283 5.6 98070 40
2010-11-08 08:01:17 51°13.12 2°50.959 11.1 30 5.6 98070 40
2010-11-08 08:01:22 51°13.117 2°50.953 10 288 5.6 98070 42
2010-11-08 08:01:27 51°13.113 2°50.946 10.1 237 5.6 98070 42
2010-11-08 08:01:32 51°13.11 2°50.94 9.9 282 5.6 98070 41
2010-11-08 08:01:37 51°13.107 2°50.934 9.1 237 5.6 98070 41
2010-11-08 08:01:42 51°13.104 2°50.928 9.4 280 5.6 98070 42
2010-11-08 08:01:47 51°13.101 2°50.922 8.6 32 5.6 98070 42
2010-11-08 08:01:51 51°13.098 2°50.917 9.7 282 5.6 98060 40
2010-11-08 08:01:57 51°13.095 2°50.91 9.1 32 5.6 98060 40
2010-11-08 08:02:02 51°13.092 2°50.904 9.8 282 5.6 98070 41
2010-11-08 08:02:07 51°13.09 2°50.899 10.4 33 5.6 98070 40
2010-11-08 08:02:11 51°13.088 2°50.894 9.9 281 5.6 98070 40
2010-11-08 08:02:17 51°13.084 2°50.887 9.1 241 5.6 98070 42
2010-11-08 08:02:22 51°13.082 2°50.881 8.7 283 5.6 98070 42
2010-11-08 08:02:27 51°13.079 2°50.876 9.5 31 5.6 98070 40
2010-11-08 08:02:31 51°13.077 2°50.871 11.6 287 5.6 98070 40
2010-11-08 08:02:37 51°13.073 2°50.864 10.9 238 5.6 98070 40
2010-11-08 08:02:42 51°13.07 2°50.859 11.7 282 5.6 98070 41
2010-11-08 08:02:47 51°13.067 2°50.853 11.4 238 5.6 98070 40
2010-11-08 08:02:51 51°13.065 2°50.848 9.7 283 5.6 98070 40
2010-11-08 08:02:57 51°13.061 2°50.841 9.3 32 5.6 98070 40
2010-11-08 08:03:02 51°13.058 2°50.836 8.2 282 5.6 98070 42
2010-11-08 08:03:07 51°13.055 2°50.83 10.2 35 5.6 98070 42
2010-11-08 08:03:12 51°13.052 2°50.825 10 282 5.6 98060 41
2010-11-08 08:03:17 51°13.048 2°50.819 11.8 36 5.6 98060 42
2010-11-08 08:03:22 51°13.045 2°50.814 8.6 284 5.6 98060 42
2010-11-08 08:03:27 51°13.042 2°50.808 9.3 235 5.6 98060 42
2010-11-08 08:03:31 51°13.039 2°50.804 10.5 287 5.6 98070 41
2010-11-08 08:03:37 51°13.035 2°50.797 9.7 35 5.6 98060 42
2010-11-08 08:03:42 51°13.032 2°50.792 10.6 279 5.6 98060 42
2010-11-08 08:03:47 51°13.028 2°50.787 9.8 37 5.6 98060 40
2010-11-08 08:03:51 51°13.026 2°50.782 8.9 284 5.6 98060 40
2010-11-08 08:03:57 51°13.022 2°50.776 9.7 31 5.6 98060 40
2010-11-08 08:04:02 51°13.018 2°50.77 9.6 283 5.6 98060 39
2010-11-08 08:04:07 51°13.015 2°50.766 9.1 37 5.6 98060 42
2010-11-08 08:04:11 51°13.012 2°50.761 8.6 280 5.6 98060 42
2010-11-08 08:04:17 51°13.008 2°50.755 8.1 37 5.6 98060 42
2010-11-08 08:04:22 51°13.004 2°50.75 9.8 282 5.5 98070 42
2010-11-08 08:04:27 51°13.001 2°50.745 8.7 236 5.5 98070 42
2010-11-08 08:04:32 51°12.997 2°50.741 9.5 280 5.6 98060 40
2010-11-08 08:04:37 51°12.994 2°50.736 7.8 32 5.6 98060 40
2010-11-08 08:04:42 51°12.99 2°50.731 9.3 279 5.5 98060 41
2010-11-08 08:04:47 51°12.987 2°50.726 8.9 318 5.5 98060 41
2010-11-08 08:04:51 51°12.983 2°50.723 8.7 284 5.5 98060 41
2010-11-08 08:04:57 51°12.979 2°50.718 9.7 30 5.5 98060 41
2010-11-08 08:05:02 51°12.975 2°50.713 8.7 24 5.6 98070 42
2010-11-08 08:05:07 51°12.971 2°50.708 9.4 37 5.6 98070 42
2010-11-08 08:05:11 51°12.968 2°50.705 9.9 284 5.6 98060 42
2010-11-08 08:05:17 51°12.963 2°50.699 9.8 31 5.6 98060 42
2010-11-08 08:05:22 51°12.96 2°50.694 9.8 285 5.6 98060 42
2010-11-08 08:05:27 51°12.956 2°50.689 9.5 34 5.6 98060 41
2010-11-08 08:05:31 51°12.953 2°50.685 9.2 287 5.6 98060 41
2010-11-08 08:05:37 51°12.948 2°50.679 9 34 5.6 98060 41
2010-11-08 08:05:42 51°12.945 2°50.674 9 284 5.6 98060 41
2010-11-08 08:05:47 51°12.941 2°50.669 10.3 236 5.6 98050 41
2010-11-08 08:05:51 51°12.938 2°50.665 10.7 285 5.6 98050 41
2010-11-08 08:05:57 51°12.933 2°50.659 9.9 236 5.6 98060 41
2010-11-08 08:06:02 51°12.929 2°50.653 11.7 285 5.6 98060 41
2010-11-08 08:06:07 51°12.926 2°50.648 10.9 239 5.6 98060 39
2010-11-08 08:06:12 51°12.922 2°50.642 11.1 287 5.6 98060 39
2010-11-08 08:06:17 51°12.919 2°50.637 12.3 240 5.6 98060 39
2010-11-08 08:06:22 51°12.915 2°50.631 8.3 284 5.6 98050 40
2010-11-08 08:06:27 51°12.912 2°50.625 10.5 245 5.6 98050 42
2010-11-08 08:06:31 51°12.909 2°50.62 11.9 283 5.6 98050 42
2010-11-08 08:06:37 51°12.905 2°50.613 9.8 239 5.6 98050 42
2010-11-08 08:06:42 51°12.901 2°50.607 9.4 280 5.6 98050 39
2010-11-08 08:06:47 51°12.897 2°50.601 8.7 236 5.6 98050 40
2010-11-08 08:06:51 51°12.895 2°50.596 8.2 287 5.6 98050 40
2010-11-08 08:06:57 51°12.89 2°50.59 8.1 29 5.6 98050 41
2010-11-08 08:07:02 51°12.887 2°50.583 8.9 20 5.6 98050 41
2010-11-08 08:07:07 51°12.884 2°50.577 8.9 238 5.6 98050 40
2010-11-08 08:07:12 51°12.88 2°50.571 8.9 287 5.6 98050 40
2010-11-08 08:07:17 51°12.877 2°50.565 8.6 238 5.6 98050 40
2010-11-08 08:07:22 51°12.873 2°50.559 9.9 285 5.7 98060 41
2010-11-08 08:07:27 51°12.87 2°50.553 10.1 238 5.7 98060 41
2010-11-08 08:07:31 51°12.867 2°50.548 10.9 285 5.7 98050 42
2010-11-08 08:07:37 51°12.863 2°50.54 9.9 243 5.7 98050 42
2010-11-08 08:07:42 51°12.86 2°50.534 9.2 281 5.7 98050 42
2010-11-08 08:07:47 51°12.857 2°50.527 8.3 242 5.7 98060 40
2010-11-08 08:07:51 51°12.854 2°50.522 9.8 284 5.7 98060 40
2010-11-08 08:07:57 51°12.85 2°50.515 8.9 240 5.6 98050 41
2010-11-08 08:08:02 51°12.847 2°50.509 10 280 5.6 98050 41
2010-11-08 08:08:07 51°12.843 2°50.502 9.6 31 5.6 98050 41
2010-11-08 08:08:11 51°12.841 2°50.497 10.2 282 5.6 98050 41
2010-11-08 08:08:17 51°12.837 2°50.49 10.6 241 5.6 98050 40
2010-11-08 08:08:22 51°12.834 2°50.484 13.2 284 5.6 98050 40
2010-11-08 08:08:27 51°12.831 2°50.477 9.5 237 5.6 98050 42
2010-11-08 08:08:32 51°12.828 2°50.471 11.3 284 5.6 98050 42
2010-11-08 08:08:37 51°12.825 2°50.465 9.5 238 5.6 98050 42
2010-11-08 08:08:42 51°12.822 2°50.458 10.3 285 5.6 98050 41
2010-11-08 08:08:47 51°12.818 2°50.453 10 30 5.6 98040 39
2010-11-08 08:08:51 51°12.816 2°50.447 9.9 283 5.6 98040 39
2010-11-08 08:08:57 51°12.813 2°50.44 9.8 244 5.6 98040 39
2010-11-08 08:09:02 51°12.81 2°50.434 10 24 5.6 98050 41
2010-11-08 08:09:07 51°12.807 2°50.428 9 242 5.6 98050 41
2010-11-08 08:09:11 51°12.804 2°50.423 10.9 281 5.6 98050 41
2010-11-08 08:09:17 51°12.801 2°50.415 9.5 245 5.6 98050 41
2010-11-08 08:09:22 51°12.798 2°50.409 9.3 280 5.6 98040 40
2010-11-08 08:09:27 51°12.795 2°50.403 9.9 235 5.6 98040 40
2010-11-08 08:09:32 51°12.791 2°50.397 9 282 5.6 98050 41
2010-11-08 08:09:37 51°12.788 2°50.391 9.8 239 5.6 98050 41
2010-11-08 08:09:42 51°12.785 2°50.385 9.5 284 5.6 98050 41
2010-11-08 08:09:47 51°12.781 2°50.379 9.3 240 5.6 98050 41
2010-11-08 08:09:51 51°12.779 2°50.374 9 279 5.6 98050 40
2010-11-08 08:09:57 51°12.775 2°50.367 8.8 238 5.6 98060 41
2010-11-08 08:10:02 51°12.772 2°50.361 8.8 281 5.6 98060 41
2010-11-08 08:10:07 51°12.769 2°50.355 9.2 242 5.6 98060 41
2010-11-08 08:10:11 51°12.766 2°50.351 11.3 284 5.6 98060 41
2010-11-08 08:10:17 51°12.762 2°50.343 10 33 5.6 98050 41
2010-11-08 08:10:22 51°12.759 2°50.337 8.4 283 5.6 98050 41
2010-11-08 08:10:27 51°12.756 2°50.331 8.9 237 5.6 98050 41
2010-11-08 08:10:31 51°12.754 2°50.326 9 281 5.6 98050 41
2010-11-08 08:10:37 51°12.75 2°50.319 9.1 30 5.6 98050 41
2010-11-08 08:10:42 51°12.747 2°50.313 9.8 284 5.6 98050 42
2010-11-08 08:10:47 51°12.744 2°50.306 10.4 238 5.6 98050 40
2010-11-08 08:10:51 51°12.741 2°50.302 10.1 283 5.6 98050 40
2010-11-08 08:10:57 51°12.737 2°50.295 7.7 240 5.6 98050 42
2010-11-08 08:11:02 51°12.734 2°50.289 8.8 24 5.6 98050 42
2010-11-08 08:11:07 51°12.731 2°50.283 8 237 5.6 98040 40
2010-11-08 08:11:12 51°12.728 2°50.278 9.8 285 5.6 98040 40
2010-11-08 08:11:17 51°12.725 2°50.272 10.3 242 5.6 98040 40
2010-11-08 08:11:22 51°12.722 2°50.266 8.8 282 5.6 98050 40
2010-11-08 08:11:27 51°12.719 2°50.26 10 241 5.6 98050 40
2010-11-08 08:11:31 51°12.717 2°50.255 9.9 282 5.6 98050 40
2010-11-08 08:11:37 51°12.713 2°50.249 10.3 242 5.6 98050 40
2010-11-08 08:11:42 51°12.71 2°50.243 9.8 287 5.6 98040 42
2010-11-08 08:11:47 51°12.707 2°50.237 8.1 243 5.6 98040 42
2010-11-08 08:11:51 51°12.704 2°50.233 8.7 285 5.6 98040 42
2010-11-08 08:11:57 51°12.701 2°50.226 8 236 5.6 98040 39
2010-11-08 08:12:02 51°12.697 2°50.22 8.9 286 5.6 98040 39
2010-11-08 08:12:07 51°12.694 2°50.214 7.8 242 5.6 98040 42
2010-11-08 08:12:12 51°12.691 2°50.208 9.1 283 5.6 98040 42
2010-11-08 08:12:17 51°12.688 2°50.202 9.2 242 5.6 98040 42
2010-11-08 08:12:22 51°12.685 2°50.196 11 284 5.6 98050 41
2010-11-08 08:12:27 51°12.682 2°50.191 9.4 245 5.6 98050 41
2010-11-08 08:12:31 51°12.68 2°50.186 9.1 286 5.6 98050 40
2010-11-08 08:12:37 51°12.676 2°50.179 8.7 239 5.7 98050 40
2010-11-08 08:12:42 51°12.673 2°50.172 9.8 281 5.7 98050 40
2010-11-08 08:12:47 51°12.67 2°50.166 8.8 244 5.6 98040 41
2010-11-08 08:12:51 51°12.667 2°50.162 8.4 281 5.6 98040 41
2010-11-08 08:12:57 51°12.663 2°50.154 9.8 247 5.6 98040 41
2010-11-08 08:13:02 51°12.66 2°50.148 9.5 280 5.6 98040 42
2010-11-08 08:13:07 51°12.657 2°50.142 10.5 243 5.7 98040 40
2010-11-08 08:13:11 51°12.655 2°50.137 8.5 283 5.7 98040 40
2010-11-08 08:13:17 51°12.651 2°50.13 10.6 246 5.7 98040 40
2010-11-08 08:13:22 51°12.648 2°50.124 8.9 284 5.6 98040 42
2010-11-08 08:13:27 51°12.645 2°50.117 9.1 247 5.7 98040 41
2010-11-08 08:13:32 51°12.642 2°50.111 9.5 284 5.7 98040 41
2010-11-08 08:13:37 51°12.64 2°50.104 8.7 241 5.7 98040 41
2010-11-08 08:13:42 51°12.637 2°50.098 8.5 281 5.6 98040 40
2010-11-08 08:13:47 51°12.634 2°50.091 8.1 250 5.6 98040 40
2010-11-08 08:13:51 51°12.632 2°50.086 10 278 5.6 98040 41
2010-11-08 08:13:57 51°12.629 2°50.078 10.1 251 5.6 98040 41
2010-11-08 08:14:02 51°12.626 2°50.072 9.2 22 5.6 98040 40
2010-11-08 08:14:07 51°12.623 2°50.065 9 246 5.6 98040 40
2010-11-08 08:14:11 51°12.621 2°50.06 10.2 281 5.6 98040 40
2010-11-08 08:14:17 51°12.618 2°50.051 9 249 5.6 98040 40
2010-11-08 08:14:22 51°12.615 2°50.045 9.5 285 5.6 98040 40
2010-11-08 08:14:27 51°12.612 2°50.038 10.9 245 5.6 98040 40
2010-11-08 08:14:32 51°12.61 2°50.032 8.4 282 5.6 98040 41
2010-11-08 08:14:37 51°12.607 2°50.025 8.6 244 5.6 98040 39
2010-11-08 08:14:42 51°12.605 2°50.018 9.2 285 5.6 98040 39
2010-11-08 08:14:47 51°12.602 2°50.012 9.1 250 5.6 98040 41
2010-11-08 08:14:51 51°12.6 2°50.006 9.5 279 5.6 98040 41
2010-11-08 08:14:57 51°12.597 2°49.998 9.4 247 5.6 98040 42
2010-11-08 08:15:02 51°12.594 2°49.992 9.3 286 5.6 98040 42
2010-11-08 08:15:07 51°12.591 2°49.985 9.3 243 5.6 98030 41
2010-11-08 08:15:12 51°12.589 2°49.979 9.1 285 5.6 98030 41
2010-11-08 08:15:17 51°12.587 2°49.972 9.9 245 5.6 98030 41
2010-11-08 08:15:22 51°12.584 2°49.965 8.7 280 5.6 98040 40
2010-11-08 08:15:27 51°12.581 2°49.959 9.5 248 5.6 98040 42
2010-11-08 08:15:31 51°12.579 2°49.953 11.5 288 5.6 98040 42
2010-11-08 08:15:37 51°12.576 2°49.945 9.4 245 5.6 98040 40
2010-11-08 08:15:42 51°12.573 2°49.939 8.9 278 5.6 98040 40
2010-11-08 08:15:47 51°12.571 2°49.932 9.4 246 5.6 98040 40
2010-11-08 08:15:51 51°12.57 2°49.926 9.4 284 5.6 98040 40
2010-11-08 08:15:57 51°12.567 2°49.918 9.6 249 5.6 98040 42
2010-11-08 08:16:02 51°12.563 2°49.912 8.8 283 5.6 98040 42
2010-11-08 08:16:07 51°12.561 2°49.905 10 249 5.6 98040 42
2010-11-08 08:16:12 51°12.558 2°49.899 11.1 283 5.7 98040 42
2010-11-08 08:16:17 51°12.556 2°49.891 10.1 250 5.6 98030 41
2010-11-08 08:16:22 51°12.554 2°49.884 4.4 289 5.6 98030 41
2010-11-08 08:16:27 51°12.551 2°49.878 8.7 246 5.6 98030 41
2010-11-08 08:16:31 51°12.549 2°49.872 7.3 282 5.7 98030 40
2010-11-08 08:16:37 51°12.546 2°49.864 9.6 248 5.7 98030 40
2010-11-08 08:16:42 51°12.544 2°49.857 9.4 281 5.6 98030 42
2010-11-08 08:16:47 51°12.541 2°49.85 9.1 248 5.6 98040 39
2010-11-08 08:16:52 51°12.539 2°49.844 7.8 285 5.6 98040 39
2010-11-08 08:16:57 51°12.536 2°49.837 7.2 250 5.7 98040 42
2010-11-08 08:17:02 51°12.534 2°49.83 6.9 285 5.7 98040 42
2010-11-08 08:17:07 51°12.531 2°49.824 8.8 252 5.6 98030 42
2010-11-08 08:17:11 51°12.529 2°49.818 7.4 286 5.6 98030 42
2010-11-08 08:17:17 51°12.526 2°49.81 9.4 249 5.6 98030 39
2010-11-08 08:17:22 51°12.524 2°49.803 11.6 284 5.6 98030 39
2010-11-08 08:17:27 51°12.521 2°49.797 12.1 252 5.7 98030 40
2010-11-08 08:17:31 51°12.519 2°49.791 14.4 284 5.7 98030 40
2010-11-08 08:17:37 51°12.516 2°49.783 12.4 246 5.7 98030 40
2010-11-08 08:17:42 51°12.513 2°49.776 10.2 282 5.7 98040 42
2010-11-08 08:17:47 51°12.511 2°49.769 9.9 249 5.6 98030 41
2010-11-08 08:17:51 51°12.509 2°49.764 10.3 288 5.6 98030 41
2010-11-08 08:17:57 51°12.505 2°49.756 9.6 253 5.6 98030 41
2010-11-08 08:18:02 51°12.504 2°49.749 10.5 285 5.6 98020 41
2010-11-08 08:18:07 51°12.501 2°49.742 8.5 247 5.6 98020 41
2010-11-08 08:18:11 51°12.499 2°49.737 7.8 284 5.6 98020 41
2010-11-08 08:18:17 51°12.496 2°49.728 8.9 248 5.6 98020 40
2010-11-08 08:18:22 51°12.494 2°49.722 10.3 283 5.6 98020 40
2010-11-08 08:18:27 51°12.491 2°49.715 9.9 253 5.6 98020 40
2010-11-08 08:18:32 51°12.489 2°49.707 9.2 286 5.6 98030 40
2010-11-08 08:18:37 51°12.486 2°49.701 7.9 249 5.6 98030 40
2010-11-08 08:18:42 51°12.483 2°49.695 9.9 285 5.7 98030 41
2010-11-08 08:18:47 51°12.481 2°49.688 10.1 247 5.7 98030 41
2010-11-08 08:18:51 51°12.479 2°49.682 8.5 283 5.7 98030 41
2010-11-08 08:18:57 51°12.476 2°49.674 10.3 247 5.7 98020 43
2010-11-08 08:19:02 51°12.473 2°49.667 9.3 284 5.7 98020 43
2010-11-08 08:19:07 51°12.47 2°49.661 10 249 5.7 98030 42
2010-11-08 08:19:12 51°12.467 2°49.654 10.2 282 5.7 98030 42
2010-11-08 08:19:17 51°12.465 2°49.648 9.5 251 5.7 98030 42
2010-11-08 08:19:22 51°12.462 2°49.641 10.5 286 5.7 98030 42
2010-11-08 08:19:27 51°12.46 2°49.634 8.2 249 5.7 98020 40
2010-11-08 08:19:31 51°12.457 2°49.629 9.4 282 5.7 98020 40
2010-11-08 08:19:37 51°12.454 2°49.621 12.2 248 5.7 98030 42
2010-11-08 08:19:42 51°12.452 2°49.613 10.8 288 5.7 98030 42
2010-11-08 08:19:47 51°12.449 2°49.607 10.4 252 5.7 98020 41
2010-11-08 08:19:52 51°12.446 2°49.6 10.9 285 5.7 98020 41
2010-11-08 08:19:57 51°12.444 2°49.593 13.1 252 5.7 98020 41
2010-11-08 08:20:02 51°12.442 2°49.586 9.5 -999 5.7 98030 40
2010-11-08 08:20:07 51°12.439 2°49.579 9.2 250 5.7 98020 40
2010-11-08 08:20:11 51°12.437 2°49.574 9.6 282 5.7 98020 40
2010-11-08 08:20:17 51°12.433 2°49.566 10.1 248 5.7 98020 40
2010-11-08 08:20:22 51°12.431 2°49.559 7.9 282 5.7 98020 42
2010-11-08 08:20:27 51°12.428 2°49.553 10.6 245 5.7 98020 40
2010-11-08 08:20:31 51°12.426 2°49.547 10.6 282 5.7 98020 40
2010-11-08 08:20:37 51°12.423 2°49.539 7.8 247 5.7 98020 41
2010-11-08 08:20:42 51°12.42 2°49.532 8.6 286 5.7 98020 41
2010-11-08 08:20:47 51°12.418 2°49.525 10 244 5.7 98030 41
2010-11-08 08:20:52 51°12.416 2°49.518 7.7 284 5.7 98030 41
2010-11-08 08:20:57 51°12.413 2°49.512 10 247 5.7 98030 41
2010-11-08 08:21:02 51°12.41 2°49.505 9.3 -999 5.7 98020 41
2010-11-08 08:21:07 51°12.407 2°49.499 9.9 244 5.7 98020 41
2010-11-08 08:21:11 51°12.405 2°49.493 12.6 286 5.7 98020 42
2010-11-08 08:21:17 51°12.403 2°49.485 9.5 247 5.7 98020 42
2010-11-08 08:21:22 51°12.4 2°49.478 8.6 281 5.7 98020 42
2010-11-08 08:21:27 51°12.398 2°49.471 10.9 245 5.7 98020 41
2010-11-08 08:21:32 51°12.395 2°49.464 11.8 287 5.7 98020 41
2010-11-08 08:21:37 51°12.393 2°49.458 10.4 248 5.7 98020 41
2010-11-08 08:21:42 51°12.39 2°49.451 8.7 283 5.7 98020 42
2010-11-08 08:21:47 51°12.387 2°49.444 9.6 250 5.7 98020 42
2010-11-08 08:21:51 51°12.385 2°49.439 9.5 286 5.7 98020 42
2010-11-08 08:21:57 51°12.382 2°49.43 8.6 248 5.7 98020 42
2010-11-08 08:22:02 51°12.38 2°49.424 10.2 287 5.7 98020 41
2010-11-08 08:22:07 51°12.377 2°49.417 10.3 252 5.7 98020 41
2010-11-08 08:22:12 51°12.374 2°49.41 9.2 283 5.7 98020 41
2010-11-08 08:22:17 51°12.372 2°49.404 9.4 249 5.7 98020 41
2010-11-08 08:22:22 51°12.369 2°49.397 11 282 5.7 98020 40
2010-11-08 08:22:27 51°12.366 2°49.39 9.5 242 5.7 98020 40
2010-11-08 08:22:31 51°12.365 2°49.384 10.1 285 5.7 98020 40
2010-11-08 08:22:37 51°12.361 2°49.376 10.8 242 5.7 98020 40
2010-11-08 08:22:42 51°12.359 2°49.369 10.3 286 5.7 98020 40
2010-11-08 08:22:47 51°12.357 2°49.363 9.8 248 5.7 98020 40
2010-11-08 08:22:52 51°12.354 2°49.356 10.5 281 5.7 98020 40
2010-11-08 08:22:57 51°12.351 2°49.349 11.3 243 5.7 98020 40
2010-11-08 08:23:02 51°12.349 2°49.342 10.8 -999 5.7 98020 41
2010-11-08 08:23:07 51°12.346 2°49.336 11.1 244 5.7 98020 41
2010-11-08 08:23:11 51°12.344 2°49.33 10.2 281 5.7 98020 42
2010-11-08 08:23:17 51°12.341 2°49.322 10.7 249 5.7 98020 41
2010-11-08 08:23:22 51°12.339 2°49.315 11.9 285 5.7 98020 41
2010-11-08 08:23:27 51°12.336 2°49.308 9.4 248 5.7 98010 41
2010-11-08 08:23:32 51°12.334 2°49.301 8.6 281 5.7 98010 41
2010-11-08 08:23:37 51°12.331 2°49.295 9.1 246 5.7 98020 41
2010-11-08 08:23:42 51°12.329 2°49.288 9.6 285 5.7 98020 41
2010-11-08 08:23:47 51°12.326 2°49.281 9.3 245 5.7 98010 42
2010-11-08 08:23:51 51°12.324 2°49.276 10.1 283 5.7 98010 42
2010-11-08 08:23:57 51°12.321 2°49.267 11.8 246 5.7 98010 42
2010-11-08 08:24:02 51°12.319 2°49.26 11.4 283 5.7 98020 42
2010-11-08 08:24:07 51°12.316 2°49.254 11 245 5.7 98020 40
2010-11-08 08:24:11 51°12.313 2°49.249 11.1 281 5.7 98020 40
2010-11-08 08:24:17 51°12.311 2°49.24 10.5 247 5.7 98020 40
2010-11-08 08:24:22 51°12.308 2°49.234 9.5 285 5.8 98010 40
2010-11-08 08:24:27 51°12.305 2°49.227 9.1 246 5.8 98010 41
2010-11-08 08:24:31 51°12.303 2°49.222 10.3 287 5.8 98010 41
2010-11-08 08:24:37 51°12.3 2°49.214 9.8 249 5.8 98010 41
2010-11-08 08:24:42 51°12.297 2°49.207 9.6 285 5.7 98010 41
2010-11-08 08:24:47 51°12.295 2°49.2 8.5 250 5.7 98020 41
2010-11-08 08:24:52 51°12.292 2°49.194 10.8 287 5.7 98020 41
2010-11-08 08:24:57 51°12.29 2°49.187 11.2 242 5.7 98010 42
2010-11-08 08:25:02 51°12.287 2°49.18 10.6 -999 5.7 98010 42
2010-11-08 08:25:07 51°12.284 2°49.174 11.5 248 5.8 98020 41
2010-11-08 08:25:11 51°12.283 2°49.168 11.1 285 5.8 98020 41
2010-11-08 08:25:17 51°12.279 2°49.161 11.8 248 5.8 98020 41
2010-11-08 08:25:22 51°12.277 2°49.154 10.3 284 5.8 98010 40
2010-11-08 08:25:27 51°12.275 2°49.147 8.5 249 5.8 98010 40
2010-11-08 08:25:31 51°12.273 2°49.141 10 283 5.8 98010 40
2010-11-08 08:25:37 51°12.27 2°49.133 9.7 245 5.7 98000 41
2010-11-08 08:25:42 51°12.267 2°49.127 11 287 5.7 98000 41
2010-11-08 08:25:47 51°12.264 2°49.12 10.4 248 5.7 98010 41
2010-11-08 08:25:51 51°12.263 2°49.115 10.7 288 5.7 98010 41
2010-11-08 08:25:57 51°12.259 2°49.107 10.6 245 5.7 98010 41
2010-11-08 08:26:02 51°12.257 2°49.1 7.8 279 5.7 98010 41
2010-11-08 08:26:07 51°12.254 2°49.093 9 246 5.7 98010 42
2010-11-08 08:26:11 51°12.252 2°49.088 8.3 278 5.7 98010 42
2010-11-08 08:26:17 51°12.249 2°49.08 7.5 247 5.7 98010 42
2010-11-08 08:26:22 51°12.247 2°49.073 8.8 284 5.7 98010 42
2010-11-08 08:26:27 51°12.244 2°49.067 9.8 247 5.7 98010 41
2010-11-08 08:26:31 51°12.242 2°49.062 10.9 283 5.7 98010 41
2010-11-08 08:26:37 51°12.239 2°49.053 11.3 247 5.7 98010 41
2010-11-08 08:26:42 51°12.236 2°49.047 7.6 283 5.7 98000 40
2010-11-08 08:26:47 51°12.234 2°49.04 8.6 250 5.7 98010 41
2010-11-08 08:26:51 51°12.231 2°49.035 9 280 5.7 98010 41
2010-11-08 08:26:57 51°12.229 2°49.026 9.1 246 5.7 98000 40
2010-11-08 08:27:02 51°12.226 2°49.019 8.5 23 5.7 98000 40
2010-11-08 08:27:07 51°12.223 2°49.013 8.9 251 5.7 98010 42
2010-11-08 08:27:12 51°12.22 2°49.006 8.2 284 5.7 98010 42
2010-11-08 08:27:17 51°12.218 2°49 10.7 246 5.7 98010 42
2010-11-08 08:27:22 51°12.215 2°48.993 10.6 283 5.7 98010 42
2010-11-08 08:27:27 51°12.212 2°48.987 11.1 251 5.7 98010 42
2010-11-08 08:27:31 51°12.211 2°48.981 11 280 5.7 98010 40
2010-11-08 08:27:37 51°12.207 2°48.973 7.9 251 5.6 98000 42
2010-11-08 08:27:42 51°12.204 2°48.966 8 284 5.6 98000 42
2010-11-08 08:27:47 51°12.201 2°48.96 8.9 249 5.6 98000 42
2010-11-08 08:27:51 51°12.199 2°48.954 9.8 286 5.6 98000 42
2010-11-08 08:27:57 51°12.196 2°48.946 9.1 248 5.6 98010 40
2010-11-08 08:28:02 51°12.194 2°48.939 9.5 279 5.6 98010 40
2010-11-08 08:28:07 51°12.191 2°48.932 10.2 248 5.6 98010 40
2010-11-08 08:28:11 51°12.189 2°48.927 11.1 283 5.6 98000 40
2010-11-08 08:28:17 51°12.186 2°48.918 10.5 252 5.6 98000 41
2010-11-08 08:28:22 51°12.183 2°48.912 9 285 5.6 98000 41
2010-11-08 08:28:27 51°12.181 2°48.904 9.9 253 5.6 98000 41
2010-11-08 08:28:32 51°12.177 2°48.898 7.7 282 5.6 98000 41
2010-11-08 08:28:37 51°12.175 2°48.891 8.7 246 5.6 98000 41
2010-11-08 08:28:42 51°12.172 2°48.884 10.1 281 5.6 98000 41
2010-11-08 08:28:47 51°12.169 2°48.878 10.2 244 5.7 98000 40
2010-11-08 08:28:51 51°12.167 2°48.872 11 281 5.7 98000 40
2010-11-08 08:28:57 51°12.164 2°48.864 9.7 245 5.7 98000 42
2010-11-08 08:29:02 51°12.162 2°48.857 9.5 19 5.7 98000 42
2010-11-08 08:29:07 51°12.16 2°48.849 11.4 247 5.7 98000 41
2010-11-08 08:29:12 51°12.158 2°48.842 10.1 286 5.7 98000 41
2010-11-08 08:29:17 51°12.156 2°48.834 9 257 5.7 98000 41
2010-11-08 08:29:22 51°12.154 2°48.827 9.3 283 5.7 97990 40
2010-11-08 08:29:27 51°12.152 2°48.82 10.2 250 5.6 98000 42
2010-11-08 08:29:31 51°12.152 2°48.814 10.5 279 5.6 98000 42
2010-11-08 08:29:37 51°12.15 2°48.805 8.2 262 5.6 98000 41
2010-11-08 08:29:42 51°12.149 2°48.798 12.3 279 5.6 98000 41
2010-11-08 08:29:47 51°12.148 2°48.791 12.2 260 5.7 98000 41
2010-11-08 08:29:52 51°12.148 2°48.783 11 281 5.7 98000 41
2010-11-08 08:29:57 51°12.148 2°48.775 9.5 261 5.7 98000 41
2010-11-08 08:30:02 51°12.147 2°48.768 6.8 285 5.6 97990 41
2010-11-08 08:30:07 51°12.146 2°48.761 8.2 262 5.6 97990 41
2010-11-08 08:30:11 51°12.146 2°48.755 7.2 285 5.6 97990 41
2010-11-08 08:30:17 51°12.146 2°48.746 13.8 261 5.6 98000 42
2010-11-08 08:30:22 51°12.145 2°48.738 6.9 285 5.6 98000 42
2010-11-08 08:30:27 51°12.145 2°48.731 6.5 264 5.6 98000 41
2010-11-08 08:30:31 51°12.145 2°48.725 5.9 285 5.6 98000 41
2010-11-08 08:30:37 51°12.145 2°48.716 6.9 268 5.6 98000 41
2010-11-08 08:30:42 51°12.145 2°48.709 7.9 284 5.6 98000 41
2010-11-08 08:30:47 51°12.145 2°48.702 8 266 5.6 98000 42
2010-11-08 08:30:52 51°12.146 2°48.695 9.2 281 5.6 98000 42
2010-11-08 08:30:57 51°12.146 2°48.687 8.6 41 5.6 98000 42
2010-11-08 08:31:02 51°12.146 2°48.681 7.5 79 5.5 98000 40
2010-11-08 08:31:07 51°12.147 2°48.674 6.9 36 5.5 98000 40
2010-11-08 08:31:11 51°12.148 2°48.668 7.6 279 5.5 98000 40
2010-11-08 08:31:17 51°12.149 2°48.66 8.5 270 5.5 98000 40
2010-11-08 08:31:22 51°12.149 2°48.654 6.1 81 5.6 98000 42
2010-11-08 08:31:27 51°12.151 2°48.646 7.4 34 5.6 98010 40